Location: Medlow Airstrip Trail, Medlow Bath NSW 2780, Australia
(33.6682°S, 150.3233°E)
Time: 16:32:37
(UTC+11:00)

Explorer 11/Cluster Stage 4 - Pass Details

Date: 01 October 2019
Orbit: 467 x 1259 km, 28.8° (Epoch: 15 October)

Event Time Altitude Azimuth Distance (km) Brightness Sun altitude
Rises 04:24:22 0° 325° (NW) 2,554 - -15.7°
Exits shadow 04:27:01 - 347° (NNW) 1,754 8.1 -15.2°
Reaches altitude 10° 04:27:38 10° 355° (N) 1,625 8.0 -15.1°
Maximum altitude 04:29:17 13° 22° (NNE) 1,462 8.1 -14.7°
Drops below altitude 10° 04:30:55 10° 49° (NE) 1,620 8.7 -14.4°
Sets 04:34:10 0° 79° (E) 2,538 10.5 -13.7°
